Flag for Canada Weather past 2 weeks in Welland, Ontario, Canada

Now
78 °F

Warm.


Feels Like: 81 °F
Forecast: 70 / 83 °F
Wind: 12 mph from Southwest

Location: Port Colborne Airport

Current Time: Jul 29, 2015 at 10:40:12 PM

Latest Report: Jul 29, 2015 at 10:00 PM


Visibility: N/A

Pressure: 29.86 "Hg

Humidity: 85%

Dew point: 74 °F

Location of WellandLocation

Historic Weather in Welland — Graph

°F

Welland temperature yesterday

Maximum temperature yesterday: 80 °F (at 7:00 PM)
Minimum temperature yesterday: 73 °F (at 7:00 AM)
Average temperature yesterday: 76 °F

Past Weeks' High & Low Weather Summary

 TemperatureHumidityPressure
High82 °F (Jul 29, 5:00 PM)100% (Jul 18, 1:00 PM)30.14 "Hg (Jul 18, 1:00 PM)
Low57 °F (Jul 15, 10:00 AM)37% (Jul 21, 7:00 PM)29.57 "Hg (Jul 14, 9:00 PM)
Average70 °F73%29.91 "Hg
* Reported Jul 14 9:00 PM — Jul 29 9:00 PM, Welland, Weather by CustomWeather, © 2015

Note: Actual official high and low records may vary slightly from our data, if they occured in-between our weather recording intervals... More about our weather records

Advertising

Welland weather history for previous 24 hours

 ConditionsComfort  
Time TempWeatherWind HumidityBarometerVisibility
9:00 PM
Wed, Jul 29
78 °FWarm.10 mph86%29.86 "HgN/A
8:00 PM78 °FWarm.5 mph83%29.88 "HgN/A
7:00 PM79 °FWarm.7 mph79%29.88 "HgN/A
6:00 PM81 °FWarm.7 mph69%29.88 "HgN/A
5:00 PM82 °FWarm.3 mph61%29.89 "HgN/A
4:00 PM81 °FWarm.3 mph63%29.91 "HgN/A
3:00 PM80 °FWarm.5 mph63%29.93 "HgN/A
2:00 PM79 °FWarm.3 mph67%29.95 "HgN/A
1:00 PM77 °FMild.5 mph70%29.96 "HgN/A
12:00 PM76 °FMild.5 mph73%29.98 "HgN/A
11:00 AM75 °FMild.7 mph72%29.98 "HgN/A
10:00 AM74 °FMild.6 mph72%29.99 "HgN/A
9:00 AM74 °FMild.8 mph70%29.99 "HgN/A
8:00 AM74 °FMild.7 mph76%29.98 "HgN/A
7:00 AM74 °FMild.7 mph77%29.98 "HgN/A
6:00 AM74 °FMild.8 mph79%29.98 "HgN/A
5:00 AM72 °FMild.5 mph85%29.97 "HgN/A
4:00 AM74 °FMild.1 mph87%29.99 "HgN/A
3:00 AM74 °FMild.1 mph87%29.99 "HgN/A
2:00 AM76 °FMild.2 mph78%30.00 "HgN/A
1:00 AM77 °FMild.3 mph82%N/AN/A
12:00 AM78 °FWarm.3 mph75%N/AN/A
11:00 PM
Tue, Jul 28
77 °FMild.2 mph83%N/AN/A
10:00 PM77 °FWarm.3 mph80%29.99 "HgN/A
Weather by CustomWeather, © 2015

See weather overviewHow to use our weather pages